| time (UTC) | temp F | wind direction | speed knots | gust knots | rain 1hr in | rain 24hr in | rain mn in | humidity % | barometer mb |
| 20260504171554 | 69 | 205 | 7.0 | 15.6 | 0.00 | 0.00 | 0.00 | 33 | 1010.5 |
| 20260504140110 | 61 | 255 | 2.6 | 14.8 | 0.00 | 0.00 | 0.00 | 43 | 1012.2 |
| 20260504110118 | 51 | 248 | 3.5 | 9.6 | 0.00 | 0.00 | 0.00 | 51 | 1013.0 |
| 20260504100105 | 50 | 219 | 1.7 | 3.5 | 0.00 | 0.00 | 0.00 | 51 | 1012.8 |
| 20260504090119 | 51 | 223 | 1.7 | 4.3 | 0.00 | 0.00 | 0.00 | 48 | 1012.5 |
| 20260504081556 | 51 | 0 | 0.9 | 6.1 | 0.00 | 0.00 | 0.00 | 49 | 1012.2 |
| 20260504044602 | 47 | 213 | 0.9 | 2.6 | 0.00 | 0.00 | 0.00 | 60 | 1011.7 |
| 20260504043057 | 47 | 235 | 0.0 | 2.6 | 0.00 | 0.00 | 0.00 | 55 | 1011.5 |
| 20260504041553 | 48 | 338 | 0.9 | 3.5 | 0.00 | 0.00 | 0.00 | 58 | 1011.4 |
| 20260504040052 | 47 | 0 | 0.0 | 2.6 | 0.00 | 0.00 | 0.00 | 57 | 1011.4 |
| 20260504034559 | 45 | 257 | 0.0 | 2.6 | 0.00 | 0.00 | 0.00 | 61 | 1011.3 |
| 20260504033103 | 44 | 0 | 0.0 | 0.0 | 0.00 | 0.00 | 0.00 | 64 | 1011.4 |
| 20260504031554 | 45 | 0 | 0.0 | 0.0 | 0.00 | 0.00 | 0.00 | 65 | 1011.3 |
| 20260504030052 | 45 | 0 | 0.0 | 0.0 | 0.00 | 0.00 | 0.00 | 64 | 1011.3 |
| 20260504024557 | 46 | 0 | 0.0 | 0.0 | 0.00 | 0.00 | 0.00 | 62 | 1011.4 |
| 20260504023055 | 46 | 0 | 0.0 | 0.0 | 0.00 | 0.00 | 0.00 | 59 | 1011.5 |
| 20260504021557 | 47 | 0 | 0.0 | 0.0 | 0.00 | 0.00 | 0.00 | 57 | 1011.5 |
| 20260504020057 | 48 | 0 | 0.0 | 0.0 | 0.00 | 0.00 | 0.00 | 55 | 1011.5 |
| 20260504014552 | 49 | 0 | 0.0 | 0.0 | 0.00 | 0.00 | 0.00 | 51 | 1011.4 |
| 20260504013057 | 50 | 0 | 0.0 | 0.0 | 0.00 | 0.00 | 0.00 | 47 | 1011.3 |
| 20260504011552 | 52 | 0 | 0.0 | 1.7 | 0.00 | 0.00 | 0.00 | 45 | 1011.1 |
| 20260504010101 | 53 | 0 | 0.0 | 3.5 | 0.00 | 0.00 | 0.00 | 40 | 1010.9 |
| 20260504004553 | 54 | 0 | 0.0 | 1.7 | 0.00 | 0.00 | 0.00 | 41 | 1010.9 |
| 20260504003054 | 55 | 0 | 0.0 | 1.7 | 0.00 | 0.00 | 0.00 | 36 | 1010.6 |
| 20260504001610 | 56 | 0 | 0.0 | 3.5 | 0.00 | 0.00 | 0.00 | 34 | 1010.3 |
| 20260504000055 | 56 | 290 | 0.0 | 7.0 | 0.00 | 0.00 | 0.00 | 33 | 1010.2 |
| 20260503234550 | 57 | 302 | 2.6 | 7.8 | 0.00 | 0.00 | 0.00 | 31 | 1009.8 |
| 20260503233057 | 58 | 266 | 2.6 | 9.6 | 0.00 | 0.00 | 0.00 | 30 | 1009.7 |
| 20260503231555 | 58 | 355 | 2.6 | 11.3 | 0.00 | 0.00 | 0.00 | 30 | 1009.6 |
| 20260503230054 | 59 | 296 | 3.5 | 10.4 | 0.00 | 0.00 | 0.00 | 28 | 1009.5 |
| 20260503224554 | 59 | 299 | 2.6 | 11.3 | 0.00 | 0.00 | 0.00 | 28 | 1009.3 |
| 20260503223053 | 59 | 297 | 6.1 | 17.4 | 0.00 | 0.00 | 0.00 | 27 | 1009.3 |
| 20260503221554 | 59 | 289 | 7.0 | 15.6 | 0.00 | 0.00 | 0.00 | 27 | 1009.4 |
| 20260503220110 | 59 | 340 | 7.8 | 16.5 | 0.00 | 0.00 | 0.00 | 27 | 1009.4 |
| 20260503214553 | 58 | 292 | 7.8 | 14.8 | 0.00 | 0.00 | 0.00 | 27 | 1009.4 |
| 20260503213057 | 58 | 341 | 8.7 | 19.1 | 0.00 | 0.00 | 0.00 | 27 | 1009.3 |
| 20260503211606 | 58 | 317 | 7.8 | 15.6 | 0.00 | 0.00 | 0.00 | 27 | 1009.1 |
| 20260503210058 | 58 | 300 | 8.7 | 19.1 | 0.00 | 0.00 | 0.00 | 28 | 1009.2 |
| 20260503204556 | 58 | 292 | 7.0 | 17.4 | 0.00 | 0.00 | 0.00 | 28 | 1009.2 |
| 20260503203053 | 57 | 352 | 8.7 | 19.1 | 0.00 | 0.00 | 0.00 | 29 | 1009.3 |
| 20260503201556 | 57 | 319 | 8.7 | 16.5 | 0.00 | 0.00 | 0.00 | 32 | 1009.2 |
| 20260503200053 | 56 | 331 | 10.4 | 20.9 | 0.00 | 0.00 | 0.00 | 30 | 1009.4 |
| 20260503194555 | 56 | 340 | 10.4 | 21.7 | 0.00 | 0.00 | 0.00 | 32 | 1009.3 |
| 20260503193102 | 56 | 313 | 11.3 | 22.6 | 0.00 | 0.00 | 0.00 | 31 | 1009.7 |
| 20260503191557 | 55 | 312 | 6.1 | 20.0 | 0.00 | 0.00 | 0.00 | 34 | 1009.6 |
| 20260503190052 | 55 | 265 | 11.3 | 21.7 | 0.00 | 0.00 | 0.00 | 33 | 1009.8 |
| 20260503184552 | 55 | 287 | 7.8 | 19.1 | 0.00 | 0.00 | 0.00 | 33 | 1010.0 |
| 20260503183104 | 54 | 5 | 7.8 | 13.9 | 0.00 | 0.00 | 0.00 | 36 | 1010.0 |
| 20260503181620 | 54 | 14 | 8.7 | 17.4 | 0.00 | 0.00 | 0.00 | 37 | 1010.0 |
| 20260503180124 | 53 | 326 | 10.4 | 24.3 | 0.00 | 0.00 | 0.00 | 37 | 1010.3 |
| 20260503174557 | 54 | 277 | 6.1 | 19.1 | 0.00 | 0.00 | 0.00 | 37 | 1010.1 |
| 20260503173100 | 53 | 281 | 9.6 | 25.2 | 0.00 | 0.00 | 0.00 | 37 | 1010.2 |